Home   Weather   Toruń   Past weeks

Flag for Poland Past Weather in Toruń, Poland — Yesterday and Last 2 Weeks

Now
56 °F

Overcast.


Feels Like: 56 °F
Forecast: 50 / 67 °F
Wind: 1 mph from Southwest

Location: Torun

Current Time: Oct 1, 2016 at 12:04:16 AM

Latest Report: Sep 30, 2016 at 11:00 PM


Visibility: 14 mi

Pressure: 29.96 "Hg

Humidity: 86%

Dew Point: 52 °F

Location of ToruńLocation

Past Weather in Toruń — Graph

°F

Toruń Temperature Yesterday

Maximum temperature yesterday: 66 °F (at 12:00 AM)
Minimum temperature yesterday: 57 °F (at 10:00 PM)
Average temperature yesterday: 63 °F

High & Low Weather Summary for the Past Weeks

 TemperatureHumidityPressure
High76 °F (Sep 16, 3:00 PM)98% (Sep 22, 4:00 AM)30.38 "Hg (Sep 22, 4:00 AM)
Low35 °F (Sep 25, 7:00 AM)30% (Sep 16, 4:00 PM)29.80 "Hg (Sep 30, 4:00 AM)
Average55 °F71%30.12 "Hg
* Reported Sep 15 10:00 PM — Sep 30 10:00 PM, Toruń, Weather by CustomWeather, © 2016

Note: Actual official high and low records may vary slightly from our data, if they occured in-between our weather recording intervals... More about our weather records

Advertising

Toruń Weather History for the Previous 24 Hours

Scroll right to see more
 ConditionsComfort  
Time TempWeatherWind HumidityBarometerVisibility
10:00 PM
Fri, Sep 30
57 °FOvercast.1 mph84%29.95 "Hg11 mi
9:00 PM58 °FSprinkles. Overcast.1 mph74%29.93 "Hg25 mi
8:00 PM60 °FOvercast.1 mph68%29.92 "Hg25 mi
7:00 PM61 °FOvercast.2 mph64%29.91 "Hg19 mi
6:00 PM62 °FOvercast.2 mph60%29.91 "Hg22 mi
5:00 PM63 °FOvercast.2 mph54%29.92 "Hg22 mi
4:00 PM64 °FOvercast.2 mph52%29.93 "Hg25 mi
3:00 PM64 °FOvercast.2 mph50%29.92 "Hg25 mi
2:00 PM65 °FOvercast.3 mph50%29.92 "Hg22 mi
1:00 PM65 °FOvercast.3 mph52%29.93 "Hg19 mi
12:00 PM65 °FOvercast.3 mph53%29.92 "Hg25 mi
11:00 AM64 °FOvercast.2 mph58%29.92 "Hg22 mi
10:00 AM63 °FOvercast.2 mph63%29.91 "Hg25 mi
8:00 AM61 °FOvercast.2 mph74%29.87 "Hg22 mi
7:00 AM61 °FOvercast.1 mph75%29.85 "Hg31 mi
6:00 AM61 °FOvercast.2 mph73%29.84 "Hg28 mi
5:00 AM62 °FPassing clouds.2 mph69%29.82 "Hg25 mi
4:00 AM62 °FPassing clouds.2 mph69%29.80 "Hg31 mi
3:00 AM63 °FPassing clouds.2 mph66%29.80 "Hg25 mi
2:00 AM64 °FPassing clouds.2 mph63%29.80 "Hg25 mi
1:00 AM65 °FPassing clouds.3 mph58%29.81 "Hg25 mi
12:00 AM66 °FPassing clouds.3 mph53%29.82 "Hg31 mi
Weather by CustomWeather, © 2016

See weather overviewHow to use our weather pages